Burlington, WA
on Sunday, February 3, 2013

Sunday
Previous Day Next Day
Daily Summary
 ActualAverage (KBLI)Record (KBLI)
Temperature
Mean Temperature °F 40°F  
Max Temperature 46°F 47°F 60°F (1992)
Min Temperature 37°F 33°F 5°F (1950)
Degree Days
Heating Degree Days 24 25  
Month to date heating degree days 75  
Cooling Degree Days 0 0  
Month to date cooling degree days 0  
Year to date cooling degree days 0  
Moisture
Dew Point 42°F   
Average Humidity 100    
Maximum Humidity 100    
Minimum Humidity 100    
Precipitation
Precipitation 0.14 in 0.12 in 1.39 in (1967)
Month to date precipitation 0.35  
Year to date precipitation 5.02  
Wind
Wind Speed 4 mph   
Max Wind Speed 8 mph   
Max Gust Speed mph   
Visibility 5 miles   
Events     

Key: T is trace of precipitation, MM is missing value
Source: NWS Daily Summary
Time(PST)TemperatureDew PointHumidity Pressure Visibility Wind DirectionWind SpeedGust SpeedPrecipitationEvents Conditions
12:15 AM 39.2°F 39.2°F 100% 30.29 in 6.0 miles SSE 3.5 mph - 0.00 in   Overcast
12:35 AM 39.2°F 39.2°F 100% 30.30 in 8.0 miles South 4.6 mph - 0.00 in   Overcast
12:55 AM 39.2°F 39.2°F 100% 30.30 in 9.0 miles SSE 4.6 mph - 0.00 in   Overcast
1:15 AM 39.2°F 39.2°F 100% 30.29 in 7.0 miles SSE 4.6 mph - 0.00 in   Overcast
1:35 AM 39.2°F 39.2°F 100% 30.28 in 7.0 miles SSE 6.9 mph - 0.00 in   Overcast
1:55 AM 39.2°F 39.2°F 100% 30.28 in 7.0 miles ESE 4.6 mph - 0.00 in   Overcast
2:15 AM 39.2°F 39.2°F 100% 30.28 in 8.0 miles South 5.8 mph - 0.00 in   Overcast
2:35 AM 39.2°F 39.2°F 100% 30.29 in 8.0 miles South 4.6 mph - 0.00 in   Overcast
2:55 AM 39.2°F 39.2°F 100% 30.29 in 10.0 miles SE 4.6 mph - 0.00 in   Overcast
3:15 AM 39.2°F 39.2°F 100% 30.28 in 5.0 miles SE 6.9 mph - 0.00 in   Overcast
3:35 AM 37.4°F 37.4°F 100% 30.28 in 3.0 miles ESE 4.6 mph - 0.00 in   Overcast
3:55 AM 37.4°F 37.4°F 100% 30.29 in 5.0 miles SSE 4.6 mph - 0.00 in   Overcast
4:15 AM 37.4°F 37.4°F 100% 30.29 in 7.0 miles ESE 5.8 mph - 0.00 in   Overcast
4:35 AM 37.4°F 37.4°F 100% 30.29 in 7.0 miles SE 3.5 mph - 0.00 in   Overcast
4:55 AM 37.4°F 37.4°F 100% 30.28 in 7.0 miles SE 3.5 mph - 0.00 in   Overcast
5:15 AM 39.2°F 39.2°F 100% 30.28 in 4.0 miles SSE 3.5 mph - 0.00 in   Overcast
5:35 AM 39.2°F 39.2°F 100% 30.28 in 4.0 miles SSE 6.9 mph - 0.00 in   Overcast
6:15 AM 39.2°F 39.2°F 100% 30.30 in 5.0 miles South 5.8 mph - 0.00 in   Overcast
6:35 AM 39.2°F 39.2°F 100% 30.29 in 5.0 miles South 5.8 mph - 0.00 in   Overcast
6:55 AM 39.2°F 39.2°F 100% 30.29 in 4.0 miles ESE 4.6 mph - 0.00 in   Overcast
7:15 AM 39.2°F 39.2°F 100% 30.29 in 2.5 miles East 3.5 mph - 0.00 in   Overcast
7:35 AM 39.2°F 39.2°F 100% 30.29 in 5.0 miles ENE 4.6 mph - 0.00 in   Overcast
7:55 AM 39.2°F 39.2°F 100% 30.29 in 7.0 miles East 3.5 mph - 0.00 in   Overcast
8:15 AM 39.2°F 39.2°F 100% 30.29 in 5.0 miles Calm Calm - 0.00 in   Overcast
8:35 AM 39.2°F 39.2°F 100% 30.30 in 2.5 miles Calm Calm - 0.00 in   Overcast
8:55 AM 39.2°F 39.2°F 100% 30.30 in 1.2 miles ENE 4.6 mph - 0.00 in   Overcast
9:15 AM 39.2°F 39.2°F 100% 30.30 in 1.0 miles ENE 3.5 mph - 0.00 in   Overcast
9:35 AM 39.2°F 39.2°F 100% 30.30 in 1.2 miles ENE 6.9 mph - 0.00 in   Overcast
9:55 AM 39.2°F 39.2°F 100% 30.29 in 1.5 miles ENE 4.6 mph - 0.00 in   Overcast
10:15 AM 39.2°F 39.2°F 100% 30.29 in 2.5 miles Calm Calm - 0.00 in   Overcast
10:35 AM 39.2°F 39.2°F 100% 30.31 in 4.0 miles Calm Calm - 0.00 in   Overcast
10:55 AM 41.0°F 41.0°F 100% 30.31 in 3.0 miles Calm Calm - 0.00 in   Overcast
11:15 AM 41.0°F 41.0°F 100% 30.31 in 3.0 miles Calm Calm - 0.00 in   Overcast
11:35 AM 41.0°F 41.0°F 100% 30.30 in 5.0 miles Calm Calm - 0.00 in   Overcast
11:55 AM 42.8°F 42.8°F 100% 30.29 in 8.0 miles East 3.5 mph - 0.00 in   Overcast
12:15 PM 42.8°F 42.8°F 100% 30.30 in 8.0 miles Calm Calm - 0.00 in   Overcast
12:35 PM 44.6°F 44.6°F 100% 30.29 in 8.0 miles SSE 3.5 mph - 0.00 in   Overcast
12:55 PM 44.6°F 44.6°F 100% 30.29 in 8.0 miles South 5.8 mph - 0.00 in   Overcast
1:15 PM 44.6°F 44.6°F 100% 30.28 in 10.0 miles South 8.1 mph - 0.00 in   Overcast
1:35 PM 44.6°F 44.6°F 100% 30.26 in 10.0 miles South 4.6 mph - 0.00 in   Overcast
1:55 PM 44.6°F 44.6°F 100% 30.25 in 9.0 miles SSE 4.6 mph - 0.00 in   Overcast
2:15 PM 46.4°F 46.4°F 100% 30.26 in 10.0 miles South 5.8 mph - 0.00 in   Overcast
2:35 PM 46.4°F 46.4°F 100% 30.25 in 9.0 miles South 6.9 mph - 0.00 in   Overcast
2:55 PM 46.4°F 46.4°F 100% 30.25 in 10.0 miles SSW 6.9 mph - 0.00 in   Overcast
3:15 PM 46.4°F 46.4°F 100% 30.26 in 9.0 miles SSW 5.8 mph - 0.00 in   Overcast
3:35 PM 46.4°F 46.4°F 100% 30.26 in 8.0 miles SW 4.6 mph - 0.00 in   Overcast
3:55 PM 46.4°F 46.4°F 100% 30.26 in 5.0 miles SW 4.6 mph - 0.00 in   Overcast
4:15 PM 46.4°F 46.4°F 100% 30.25 in 5.0 miles South 3.5 mph - 0.00 in   Overcast
4:35 PM 46.4°F 46.4°F 100% 30.25 in 4.0 miles South 3.5 mph - 0.00 in   Overcast
4:55 PM 44.6°F 44.6°F 100% 30.25 in 4.0 miles Calm Calm - 0.01 in   Overcast
5:15 PM 44.6°F 44.6°F 100% 30.24 in 3.0 miles Calm Calm - 0.00 in   Overcast
5:35 PM 44.6°F 44.6°F 100% 30.24 in 4.0 miles Calm Calm - 0.01 in   Overcast
5:55 PM 44.6°F 44.6°F 100% 30.24 in 3.0 miles Calm Calm - 0.02 in   Overcast
6:15 PM 44.6°F 44.6°F 100% 30.24 in 3.0 miles Calm Calm - 0.01 in   Overcast
6:35 PM 44.6°F 44.6°F 100% 30.24 in 2.5 miles Calm Calm - 0.02 in   Overcast
6:55 PM 44.6°F 44.6°F 100% 30.23 in 2.0 miles Calm Calm - 0.04 in   Overcast
7:15 PM 44.6°F 44.6°F 100% 30.23 in 1.2 miles Calm Calm - 0.02 in   Overcast
7:35 PM 44.6°F 44.6°F 100% 30.23 in 1.5 miles Calm Calm - 0.03 in   Overcast
7:55 PM 44.6°F 44.6°F 100% 30.23 in 3.0 miles Calm Calm - 0.04 in   Overcast
8:15 PM 44.6°F 44.6°F 100% 30.22 in 3.0 miles Calm Calm - 0.01 in   Overcast
8:35 PM 42.8°F 42.8°F 100% 30.22 in 3.0 miles Calm Calm - 0.02 in   Overcast
8:55 PM 44.6°F 44.6°F 100% 30.22 in 3.0 miles WNW 3.5 mph - 0.02 in   Overcast
9:15 PM 44.6°F 44.6°F 100% 30.22 in 4.0 miles Calm Calm - 0.00 in   Overcast
9:35 PM 44.6°F 44.6°F 100% 30.22 in 3.0 miles Calm Calm - 0.01 in   Overcast
10:15 PM 44.6°F 44.6°F 100% 30.22 in 2.5 miles Calm Calm - 0.00 in   Overcast
10:35 PM 44.6°F 44.6°F 100% 30.22 in 2.5 miles Calm Calm - 0.00 in   Overcast
10:55 PM 44.6°F 44.6°F 100% 30.22 in 2.0 miles SSE 4.6 mph - 0.00 in   Overcast
11:15 PM 44.6°F 44.6°F 100% 30.22 in 2.5 miles South 3.5 mph - 0.00 in   Overcast
11:35 PM 44.6°F 44.6°F 100% 30.22 in 2.0 miles Calm Calm - 0.00 in   Overcast
11:55 PM 44.6°F 44.6°F 100% 30.21 in 2.0 miles Calm Calm - 0.00 in   Overcast
Moon Phase
Feb. 03 Feb. 10 Feb. 17 Feb. 25 Mar. 04
Sunrise:07:35 AM (PST) Moon Rise:01:11 AM (PST)2/3
Sunset:05:12 PM (PST) Moon Set:10:50 AM (PST)2/3

Copyright © 2014 The Weather Underground, Inc.